Home   Weather   Ushuaia   Past weeks

Flag for Argentina Past Weather in Ushuaia, Tierra del Fuego, Argentina — Yesterday and Last 2 Weeks

Now
46 °F

Partly sunny.


Feels Like: 41 °F
Forecast: 41 / 48 °F
Wind: 12 mph from South

Location: Ushuaia Aerodrome

Current Time: Dec 6, 2016 at 9:28:31 am

Latest Report: Dec 6, 2016 at 8:00 am


Visibility: N/A

Pressure: 29.68 "Hg

Humidity: 87%

Dew Point: 43 °F

Location of UshuaiaLocation

Past Weather in Ushuaia — Graph

°F

Ushuaia Temperature Yesterday

Maximum temperature yesterday: 55 °F (at 5:00 pm)
Minimum temperature yesterday: 43 °F (at 2:00 am)
Average temperature yesterday: 49 °F

High & Low Weather Summary for the Past Weeks

 TemperatureHumidityPressure
High64 °F (Nov 22, 5:00 pm)100% (Nov 22, 4:00 am)29.89 "Hg (Nov 22, 4:00 am)
Low37 °F (Dec 2, 6:00 am)35% (Nov 29, 10:00 pm)29.09 "Hg (Dec 1, 1:00 pm)
Average50 °F69%29.58 "Hg
* Reported Nov 21 8:00 am — Dec 6 8:00 am, Ushuaia, Weather by CustomWeather, © 2016

Note: Actual official high and low records may vary slightly from our data, if they occured in-between our weather recording intervals... More about our weather records

Advertising

Ushuaia Weather History for the Previous 24 Hours

Scroll right to see more
 ConditionsComfort  
Time TempWeatherWind HumidityBarometerVisibility
8:00 am
Tue, Dec 6
46 °FPartly sunny.12 mph87%29.68 "HgN/A
7:00 am46 °FPartly sunny.12 mph82%29.68 "HgN/A
6:00 am46 °FPartly sunny.10 mph71%29.68 "HgN/A
3:00 am48 °FDrizzle. Mostly cloudy.13 mph71%29.65 "HgN/A
2:00 am48 °FDrizzle. Mostly cloudy.13 mph66%29.65 "HgN/A
1:00 am48 °FScattered showers. Mostly cloudy.16 mph62%29.65 "HgN/A
11:00 pm
Mon, Dec 5
48 °FMostly cloudy.25 mph62%29.65 "HgN/A
10:00 pm50 °FPartly cloudy.29 mph67%29.65 "HgN/A
9:00 pm50 °FBroken clouds.29 mph62%29.62 "HgN/A
8:00 pm52 °FPartly sunny.25 mph62%29.62 "HgN/A
7:00 pm52 °FSunny.29 mph62%29.62 "Hg10 mi
6:00 pm55 °FPassing clouds.25 mph51%29.59 "HgN/A
5:00 pm55 °FPassing clouds.26 mph51%29.59 "HgN/A
4:00 pm54 °FScattered clouds.23 mph58%29.59 "HgN/A
3:00 pm54 °FSunny.20 mph54%29.59 "Hg10 mi
2:00 pm54 °FSunny.21 mph63%29.62 "Hg10 mi
1:00 pm54 °FSunny.18 mph58%29.62 "Hg10 mi
12:00 pm54 °FSunny.15 mph58%29.62 "Hg10 mi
11:00 am52 °FSunny.12 mph67%29.65 "Hg10 mi
10:00 am50 °FSunny.3 mph71%29.65 "Hg10 mi
9:00 am50 °FSunny.3 mph76%29.65 "Hg10 mi
Weather by CustomWeather, © 2016

See weather overviewHow to use our weather pages